Tracking 25723 objects as of 26-Jun-2022
HD Live streaming from Space Station
objects crossing your sky now

RADUGA 1-5

Track RADUGA 1-5 now!
RADUGA 1-5 is classified as:


NORAD ID: 26477
Int'l Code: 2000-049A
Perigee: 35,769.0 km
Apogee: 35,831.2 km
Inclination: 13.1 °
Period: 1,436.4 minutes
Semi major axis: 42171 km
RCS: 10 m2 (large)
Launch date: August 28, 2000
Source: Commonwealth of Independent States (former USSR) (CIS)
Launch site: TYURATAM MISSILE AND SPACE COMPLEX (TTMTR)

Military communication.
aabbcc
Your satellite tracking list
Your tracking list is empty




NASA's NSSDC Master Catalog

Two Line Element Set (TLE):
1 26477U 00049A   22177.19628130  .00000105  00000-0  00000-0 0  9994
2 26477  13.1308  18.4487 0007375  59.6283 312.6018  1.00249019 79868
Source of the keplerian elements: AFSPC